Вернуться в каталог

STARLINK-31768

АктивенСвязьVLEO
NORAD 59616·PAYLOAD·🇺🇸 United States

Запущен Apr 28, 2024 с Cape Canaveral Space Force Station

Loading…

Ближайшие Пролёты (ближайшие 24 часа)

TLE

СвежийSource: CelesTrak SupGP

Эпоха: Sep 15, 2026, 03:27 UTC

1 59616C 24080R   26258.14423611 -.00020327  00000+0 -73635-3 0  2586
2 59616  43.0033  48.0667 0001575 271.1886 177.7227 15.27584381    12

Отслеживайте STARLINK-31768 в реальном времени с AllMySat

Download on the App Store